Weather reports worldwide

Advertisment
Nancy/Ochey, France (7181): temperature & dewpoint: 14.10.2018 16:00:00 - 20.10.2018 16:00:00 (CEST)Nancy/Ochey, France (7181): temperature 5cm: 14.10.2018 16:00:00 - 20.10.2018 16:00:00 (CEST)Nancy/Ochey, France (7181): temperature -20cm & temperature -100cm: 14.10.2018 16:00:00 - 20.10.2018 16:00:00 (CEST)Nancy/Ochey, France (7181): wind speed & gusts: 14.10.2018 16:00:00 - 20.10.2018 16:00:00 (CEST)Nancy/Ochey, France (7181): wind direction: 14.10.2018 16:00:00 - 20.10.2018 16:00:00 (CEST)Nancy/Ochey, France (7181): reduced air pressure: 14.10.2018 16:00:00 - 20.10.2018 16:00:00 (CEST)Nancy/Ochey, France (7181): visibility: 14.10.2018 16:00:00 - 20.10.2018 16:00:00 (CEST)Nancy/Ochey, France (7181): precipitation: 14.10.2018 16:00:00 - 20.10.2018 16:00:00 (CEST)
Date & Time tt [°C] td [°C] tt 5cm [°C] tt -20cm [°C] tt -100cm [°C] ff [km/h] ff [kn] fx [km/h] fx [kn] dd ppp [hPa] vv [km] rr [mm]
20.10.2018 16:00:00 17,9 9,5 - - - 13 7 24 13 ENE 1027,6 11 0,0
20.10.2018 15:00:00 17,5 10,4 21,8 13,8 15,0 9 5 28 15 N 1027,9 10 0,0
20.10.2018 14:00:00 16,8 11,3 22,5 13,8 15,0 13 7 22 12 N 1028,6 7 0,0
20.10.2018 13:00:00 14,2 12,4 20,0 13,8 15,0 9 5 17 9 WNW 1029,2 7 0,0
20.10.2018 12:00:00 10,6 10,4 12,9 13,9 15,0 5 3 14 8 NNW 1029,7 3,4 0,0
20.10.2018 11:00:00 9,3 9,2 10,4 13,9 15,0 4 2 9 5 N 1029,7 0,4 0,0
20.10.2018 10:00:00 8,3 8,2 8,7 13,9 15,0 6 3 14 8 N 1029,6 0,1 0,0
20.10.2018 09:00:00 7,8 7,7 7,6 14,0 15,0 5 3 9 5 NNW 1028,9 0,1 0,0
20.10.2018 08:00:00 7,7 7,4 7,6 14,1 15,0 3 2 10 6 NE 1027,9 0,1 0,0
20.10.2018 07:00:00 7,7 7,4 7,6 14,1 15,0 6 3 11 6 N 1027,9 0,1 0,2
20.10.2018 06:00:00 8,1 7,8 5,9 14,1 15,0 5 3 10 6 N 1027,4 0,1 0,0
20.10.2018 05:00:00 7,8 7,5 1,1 14,2 15,0 6 3 11 6 N 1026,8 0,2 0,0
20.10.2018 04:00:00 7,5 6,9 0,4 14,2 15,0 2 1 8 4 WNW 1026,1 0,1 0,0
20.10.2018 03:00:00 8,7 8,2 1,2 14,2 15,1 6 4 13 7 NNE 1025,8 2,1 0,0
20.10.2018 02:00:00 9,6 9,0 1,4 14,2 15,0 0 0 5 3 N 1025,4 3,0 0,0
20.10.2018 01:00:00 9,1 8,2 2,2 14,2 15,0 3 2 9 5 NW 1025,1 4,4 0,0
20.10.2018 00:00:00 9,8 8,1 3,6 14,3 15,1 3 2 17 9 N 1025,2 4,9 0,0
19.10.2018 23:00:00 11,1 8,8 4,2 14,2 15,0 7 4 12 7 NE 1024,9 8 0,0
19.10.2018 22:00:00 12,3 9,3 4,6 14,2 15,1 8 4 14 7 NNE 1024,4 8 0,0
19.10.2018 21:00:00 12,5 9,3 4,5 14,2 15,1 10 5 12 7 NNE 1023,8 11 0,0
19.10.2018 20:00:00 13,5 9,2 6,3 14,2 15,1 6 4 14 8 N 1023,0 14 0,0
19.10.2018 19:00:00 15,3 9,6 10,4 14,1 15,0 11 6 15 8 NNE 1021,9 15 0,0
19.10.2018 18:00:00 18,1 10,2 17,5 14,1 15,0 11 6 21 12 NE 1020,9 15 0,0
19.10.2018 17:00:00 19,1 10,1 21,8 14,1 15,1 16 9 25 13 N 1020,7 15 0,0
19.10.2018 16:00:00 19,5 10,2 23,3 14,1 15,0 15 8 25 13 NNE 1020,7 18 0,0
19.10.2018 15:00:00 19,1 10,4 23,0 14,1 15,1 14 7 25 13 NNE 1021,0 11 0,0
19.10.2018 14:00:00 17,9 10,3 21,6 14,1 15,1 16 9 27 15 NE 1021,2 9 0,0
19.10.2018 13:00:00 16,7 10,3 19,8 14,1 15,0 18 10 30 16 NE 1021,8 9 0,0
19.10.2018 12:00:00 14,8 10,0 16,2 14,1 15,1 13 7 22 12 NNE 1022,1 7 0,0
19.10.2018 11:00:00 12,0 11,1 12,7 14,1 15,1 11 6 17 9 NNE 1022,8 4,5 0,0
19.10.2018 10:00:00 9,8 9,7 8,7 14,2 15,1 5 3 11 6 N 1022,7 2,5 0,0
19.10.2018 09:00:00 8,2 7,9 5,4 14,2 15,1 9 5 14 8 NNE 1022,6 0,1 0,0
19.10.2018 08:00:00 7,8 7,5 5,8 14,3 15,1 13 7 19 10 NNE 1022,1 0,1 0,0
19.10.2018 07:00:00 8,6 8,3 8,1 14,2 15,1 3 1 15 8 NW 1022,0 0,1 0,0
19.10.2018 06:00:00 8,6 8,2 5,9 14,3 15,1 7 4 13 7 W 1021,7 0,1 0,2
19.10.2018 05:00:00 10,4 9,8 5,2 14,3 15,1 9 5 16 9 NE 1021,1 3,6 0,0
19.10.2018 04:00:00 10,6 10,0 5,5 14,3 15,1 10 6 16 8 NNE 1021,0 3,1 0,0
19.10.2018 03:00:00 10,5 9,9 3,9 14,3 15,1 11 6 16 9 NNE 1021,4 2,9 0,0
19.10.2018 02:00:00 9,8 9,0 4,6 14,3 15,1 4 2 11 6 NNW 1021,7 1,9 0,0
19.10.2018 01:00:00 11,1 10,2 5,9 14,3 15,1 9 5 15 8 NNE 1021,6 3,5 0,0
19.10.2018 00:00:00 11,0 9,3 7,0 14,2 15,1 5 3 22 12 WNW 1021,6 3,4 0,0
18.10.2018 23:00:00 13,4 10,7 12,1 14,2 15,1 17 9 26 14 NE 1021,1 6 0,0
18.10.2018 22:00:00 14,0 11,0 12,7 14,2 15,1 14 8 29 16 NE 1021,0 7 0,0
18.10.2018 21:00:00 14,4 11,0 13,3 14,1 15,1 16 9 30 16 NE 1020,6 7 0,0
18.10.2018 20:00:00 15,5 11,1 14,5 14,1 15,1 21 11 35 19 NNE 1019,7 9 0,0
18.10.2018 19:00:00 17,2 11,5 15,9 14,1 15,1 18 10 35 19 NNE 1018,9 10 0,0
18.10.2018 18:00:00 19,3 11,6 18,8 14,0 15,1 23 12 36 19 N 1018,0 14 0,0
18.10.2018 17:00:00 21,2 9,7 23,6 14,0 15,1 20 11 35 19 NNE 1017,9 43 0,0
18.10.2018 16:00:00 21,6 9,5 24,7 14,0 15,1 17 9 34 18 NNE 1017,9 34 0,0
18.10.2018 15:00:00 21,5 10,0 25,2 14,0 15,1 17 9 35 19 ENE 1018,1 24 0,0
18.10.2018 14:00:00 20,8 11,1 24,6 14,1 15,1 17 9 35 19 NE 1018,8 10 0,0
18.10.2018 13:00:00 19,6 11,1 24,3 14,1 15,1 19 10 29 16 NE 1019,4 8 0,0
18.10.2018 12:00:00 16,6 11,1 20,8 14,1 15,1 13 7 21 11 N 1020,3 7 0,0
18.10.2018 11:00:00 13,9 10,9 14,3 14,1 15,1 14 8 20 11 N 1020,7 5 0,0
18.10.2018 10:00:00 11,4 10,1 7,3 14,2 15,1 10 5 17 9 N 1021,0 4,2 0,0
18.10.2018 09:00:00 8,6 8,0 1,5 14,3 15,1 8 5 11 6 N 1020,8 6 0,0
18.10.2018 08:00:00 8,0 7,2 0,7 14,3 15,2 6 4 11 6 N 1020,2 5 0,0
18.10.2018 07:00:00 8,6 7,8 1,3 14,3 15,1 7 4 9 5 N 1020,0 4,1 0,0
18.10.2018 06:00:00 9,0 8,1 2,0 14,4 15,1 5 3 8 5 N 1019,7 4,0 0,0
18.10.2018 05:00:00 9,4 8,3 2,6 14,4 15,2 7 4 9 5 NNW 1019,4 7 0,0
18.10.2018 04:00:00 9,8 8,4 3,4 14,4 15,1 7 4 9 5 N 1019,4 10 0,0
18.10.2018 03:00:00 10,3 8,6 4,4 14,4 15,1 3 1 8 5 NE 1019,4 12 0,0
18.10.2018 02:00:00 10,6 8,4 4,7 14,4 15,1 5 3 10 5 N 1019,2 12 0,0
18.10.2018 01:00:00 11,7 8,4 5,1 14,4 15,1 4 2 6 3 NW 1019,1 20 0,0
18.10.2018 00:00:00 12,9 8,6 6,3 14,4 15,2 2 1 15 8 W 1018,9 35 0,0
17.10.2018 23:00:00 13,6 8,8 6,7 14,4 15,2 9 5 14 7 NE 1018,9 41 0,0
17.10.2018 22:00:00 15,6 9,5 7,9 14,4 15,2 8 4 14 7 ENE 1018,5 33 0,0
17.10.2018 21:00:00 14,9 9,5 7,3 14,4 15,2 8 4 11 6 ENE 1018,2 34 0,0
17.10.2018 20:00:00 15,9 8,9 8,0 14,3 15,2 8 4 9 5 N 1017,7 40 0,0
17.10.2018 19:00:00 17,8 8,9 10,1 14,3 15,1 4 2 9 5 N 1017,1 39 0,0
17.10.2018 18:00:00 20,6 8,9 19,7 14,3 15,1 6 3 18 10 ENE 1016,4 20 0,0
17.10.2018 17:00:00 22,3 7,7 25,4 14,2 15,1 11 6 23 12 NE 1016,2 38 0,0
17.10.2018 16:00:00 22,9 6,6 26,9 14,2 15,1 11 6 35 19 ENE 1016,2 35 0,0
17.10.2018 15:00:00 21,9 10,1 29,1 14,3 15,2 11 6 19 11 NNW 1016,6 27 0,0
17.10.2018 14:00:00 21,6 9,5 27,7 14,3 15,1 9 5 17 9 NW 1017,2 20 0,0
17.10.2018 13:00:00 19,2 10,2 23,2 14,3 15,1 4 2 9 5 N 1018,1 16 0,0
17.10.2018 12:00:00 15,7 9,1 19,9 14,3 15,1 4 2 8 4 WNW 1019,2 0,2 0,0
17.10.2018 11:00:00 14,0 8,8 16,1 14,4 15,1 4 2 9 5 WNW 1019,3 17 0,0
17.10.2018 10:00:00 12,0 8,3 8,6 14,5 15,1 2 1 5 3 WSW 1019,4 14 0,0
17.10.2018 09:00:00 8,6 6,6 2,9 14,5 15,2 3 1 10 5 N 1019,8 10 0,0
17.10.2018 08:00:00 8,3 6,9 0,7 14,6 15,2 3 2 8 4 S 1019,6 12 0,0
17.10.2018 07:00:00 7,5 5,5 0,9 14,6 15,2 3 2 8 4 N 1019,7 14 0,0
17.10.2018 06:00:00 7,6 5,9 1,2 14,6 15,2 3 2 8 4 S 1019,5 17 0,0
17.10.2018 05:00:00 7,9 5,4 1,5 14,7 15,2 3 2 7 4 S 1019,3 19 0,0
17.10.2018 04:00:00 9,9 5,7 2,9 14,7 15,2 3 2 9 5 S 1019,4 22 0,0
17.10.2018 03:00:00 11,9 6,4 3,0 14,7 15,2 4 2 15 8 SW 1019,3 26 0,0
17.10.2018 02:00:00 10,6 6,7 3,2 14,8 15,2 4 2 6 4 S 1019,8 25 0,0
17.10.2018 01:00:00 11,8 6,9 3,6 14,8 15,2 3 1 6 3 WSW 1019,9 27 0,0
17.10.2018 00:00:00 11,8 6,7 3,4 14,8 15,2 6 3 8 4 N 1019,7 39 0,0
16.10.2018 23:00:00 13,5 6,6 4,8 14,8 15,2 3 1 6 3 WNW 1019,6 38 0,0
16.10.2018 22:00:00 14,6 6,9 4,9 14,8 15,2 4 2 7 4 NE 1019,2 43 0,0
16.10.2018 21:00:00 15,2 7,2 6,4 14,7 15,1 3 2 9 5 W 1019,0 33 0,0
16.10.2018 20:00:00 17,2 7,0 7,4 14,7 15,2 4 2 9 5 ENE 1018,7 42 0,0
16.10.2018 19:00:00 19,0 7,7 9,2 14,7 15,1 6 4 11 6 ENE 1018,0 47 0,0
16.10.2018 18:00:00 21,8 8,7 20,1 14,7 15,1 6 3 15 8 ENE 1017,3 46 0,0
16.10.2018 17:00:00 22,9 7,8 26,8 14,6 15,1 6 3 18 10 NE 1017,1 41 0,0
16.10.2018 16:00:00 22,9 7,8 27,9 14,6 15,1 9 5 19 10 E 1017,2 34 0,0
16.10.2018 15:00:00 23,1 8,4 26,8 14,6 15,1 10 6 18 10 E 1017,2 20 0,0
16.10.2018 14:00:00 21,1 9,0 25,6 14,7 15,1 9 5 19 10 NNE 1017,6 26 0,0
16.10.2018 13:00:00 20,0 9,3 23,0 14,7 15,1 6 4 15 8 ENE 1017,7 20 0,0
16.10.2018 12:00:00 18,3 8,8 23,8 14,8 15,1 9 5 17 9 E 1018,2 55 0,0
16.10.2018 11:00:00 15,2 9,5 16,5 14,8 15,1 2 1 9 5 W 1018,6 17 0,0
16.10.2018 10:00:00 12,2 9,0 8,4 14,9 15,1 3 1 6 3 N 1019,0 13 0,0
16.10.2018 09:00:00 9,3 7,6 1,2 15,0 15,2 2 1 7 4 SW 1019,2 13 0,0
16.10.2018 08:00:00 7,9 6,4 0,9 15,0 15,1 5 3 7 4 NE 1018,7 12 0,0
16.10.2018 07:00:00 9,3 7,1 1,4 15,1 15,1 5 3 9 5 SW 1018,1 15 0,0
16.10.2018 06:00:00 9,2 6,8 1,2 15,2 15,1 0 0 6 3 N 1017,8 15 0,0
16.10.2018 05:00:00 9,5 7,3 1,3 15,2 15,2 4 2 10 5 N 1017,7 19 0,0
16.10.2018 04:00:00 10,3 7,2 2,1 15,2 15,1 3 1 6 3 N 1017,4 22 0,0
16.10.2018 03:00:00 11,0 7,5 2,8 15,2 15,1 2 1 5 3 S 1017,0 27 0,0
16.10.2018 02:00:00 11,3 7,2 4,2 15,3 15,1 4 2 16 8 W 1016,8 37 0,0
16.10.2018 01:00:00 12,4 7,3 4,3 15,3 15,1 4 2 11 6 WNW 1016,1 42 0,0
16.10.2018 00:00:00 13,5 7,5 5,1 15,3 15,1 2 1 9 5 NNW 1015,7 35 0,0
15.10.2018 23:00:00 15,4 7,7 7,1 15,3 15,1 8 4 13 7 ESE 1015,3 47 0,0
15.10.2018 22:00:00 16,5 7,7 7,1 15,3 15,1 8 5 14 8 E 1015,1 45 0,0
15.10.2018 21:00:00 17,7 8,0 7,4 15,2 15,1 9 5 11 6 E 1014,2 44 0,0
15.10.2018 20:00:00 17,4 7,7 7,7 15,3 15,1 8 4 11 6 ENE 1014,2 47 0,0
15.10.2018 19:00:00 19,6 7,3 11,3 15,2 15,1 8 5 13 7 E 1013,4 50 0,0
15.10.2018 18:00:00 22,4 7,4 21,1 15,2 15,1 9 5 23 12 ENE 1012,5 51 0,0
15.10.2018 17:00:00 23,3 7,4 25,5 15,2 15,1 13 7 28 15 ENE 1012,0 42 0,0
15.10.2018 16:00:00 23,5 6,3 26,9 15,2 15,1 16 8 32 18 ENE 1011,9 32 0,0
15.10.2018 15:00:00 23,3 7,4 28,2 15,2 15,1 12 7 25 14 ENE 1012,0 20 0,0
15.10.2018 14:00:00 22,9 6,6 28,3 15,2 15,1 14 7 22 12 ENE 1012,4 20 0,0
15.10.2018 13:00:00 22,2 8,7 27,7 15,2 15,1 10 5 16 9 ENE 1012,8 20 0,0
15.10.2018 12:00:00 21,2 9,7 24,1 15,2 15,0 2 1 9 5 SW 1013,0 45 0,0
15.10.2018 11:00:00 18,7 9,2 19,3 15,3 15,1 3 2 11 6 E 1013,3 36 0,0
15.10.2018 10:00:00 15,5 8,9 12,5 15,3 15,1 9 5 13 7 E 1013,7 25 0,0
15.10.2018 09:00:00 12,7 8,4 6,9 15,3 15,1 9 5 14 8 SE 1013,7 30 0,0
15.10.2018 08:00:00 11,3 7,8 6,5 15,3 15,1 3 2 14 8 SSE 1013,4 24 0,0
15.10.2018 07:00:00 12,1 7,8 7,1 15,4 15,1 8 4 12 7 SE 1012,7 29 0,0
15.10.2018 06:00:00 13,4 7,8 6,5 15,4 15,1 10 6 14 8 SE 1012,3 30 0,0
15.10.2018 05:00:00 14,5 8,0 9,1 15,4 15,1 9 5 22 12 ESE 1012,1 37 0,0
15.10.2018 04:00:00 17,0 7,9 13,9 15,4 15,1 15 8 24 13 S 1011,5 37 0,0
15.10.2018 03:00:00 18,3 8,0 16,8 15,3 15,1 17 9 35 19 SSW 1011,2 38 0,0
15.10.2018 02:00:00 18,8 8,2 15,5 15,3 15,1 17 9 29 15 SSW 1011,1 47 0,0
15.10.2018 01:00:00 18,3 8,0 14,8 15,4 15,1 11 6 26 14 SSE 1011,3 45 0,0
15.10.2018 00:00:00 19,8 7,8 18,2 15,3 15,1 18 10 34 19 S 1011,0 46 0,0
14.10.2018 23:00:00 20,1 7,8 17,9 15,3 15,1 21 11 31 17 SSW 1010,8 44 0,0
14.10.2018 22:00:00 19,4 7,5 17,2 15,3 15,1 13 7 23 12 S 1010,7 53 0,0
14.10.2018 21:00:00 19,3 7,1 15,9 15,3 15,1 11 6 21 12 SSE 1010,5 57 0,0
14.10.2018 20:00:00 19,1 6,2 15,4 15,3 15,0 14 8 24 13 S 1010,4 57 0,0
14.10.2018 19:00:00 20,2 5,8 17,2 15,2 15,1 15 8 31 17 S 1009,7 58 0,0
14.10.2018 18:00:00 21,8 4,4 20,1 15,2 15,1 26 14 45 24 S 1009,2 57 0,0
14.10.2018 17:00:00 23,0 3,0 23,3 15,2 15,1 36 19 61 33 S 1009,0 52 0,0
14.10.2018 16:00:00 23,8 3,7 24,8 15,1 15,0 29 16 53 28 S 1009,4 20 0,0

tt = temperature
td = dewpoint
tt 5cm = temperature 5cm
tt -20cm = temperature -20cm
tt -100cm = temperature -100cm
ff = wind speed
fx = gusts
dd = wind direction
ppp = reduced air pressure
vv = visibility
rr = precipitation

Next stations